Simultaneous Nadir Overpasses (SNOs) Predictions

Prediction of SNOs between METOP-B and TERRA Satellite Orbit:

Table of predicted SNOs for the next 14.0 days since TLE Epoch: 12/12/2020
Index Date (METOP-B) Time (METOP-B) Lat,Lon (METOP-B) SZA (METOP-B ) Date (TERRA) Time (TERRA) Lat,Lon (TERRA) SZA (TERRA ) Distance(km) Time Diff (sec)
1 12/13/2020 04:11:50 -81.29, -16.16 72.80 12/13/2020 04:12:04 -81.30, -16.09 72.79 1.33 14
2 12/13/2020 05:02:30 81.30, 151.66 107.26 12/13/2020 05:01:30 81.30, 151.67 107.24 0.41 60
3 12/15/2020 23:46:12 -81.30, 50.51 72.66 12/15/2020 23:46:17 -81.30, 50.47 72.66 1.07 5
4 12/16/2020 00:36:52 81.30,-141.67 107.40 12/16/2020 00:35:43 81.31,-141.80 107.36 2.20 69
5 12/18/2020 18:29:56 81.29, -51.10 107.31 12/18/2020 18:31:04 81.29, -50.99 107.36 1.91 68
6 12/18/2020 19:20:35 -81.30, 116.78 72.63 12/18/2020 19:20:31 -81.29, 116.59 72.66 3.31 4
7 12/21/2020 14:04:17 81.29, 15.52 107.33 12/21/2020 14:05:16 81.29, 15.45 107.35 1.21 59
8 12/21/2020 14:54:57 -81.29,-176.97 72.66 12/21/2020 14:54:43 -81.29,-176.95 72.67 0.77 14
9 12/24/2020 09:38:40 81.29, 81.72 107.23 12/24/2020 09:39:29 81.29, 81.84 107.26 1.89 49



Historial Predications of SNOs between METOP-B and TERRA
